Temp
-10 -10 -10 -10 -9 -9 -9 -9 -9 -9 -9 -9 -9 -9 -9 -9 -9 -9 -10 -10 -10 -10 -10 -10 -10 -10 -10 -10 -10 -10 -11 -13 -14 -14 -15 -15 -16 -16 -17 -18 -18 -16 -15 -15
-10 -10 -10 -10 -9 -9 -9 -9 -9 -9 -9 -9 -9 -9 -9 -9 -9 -10 -10 -10 -10 -10 -10 -10 -10 -10 -10 -10 -10 -10 -11 -14 -15 -15 -15 -16 -16 -17 -19 -20 -19 -18 -16 -16
-10 -10 -10 -10 -10 -9 -9 -9 -9 -9 -9 -9 -9 -9 -9 -9 -9 -10 -10 -10 -10 -10 -10 -10 -10 -11 -10 -10 -10 -11 -11 -13 -15 -15 -16 -16 -16 -18 -19 -20 -19 -19 -17 -16
-10 -10 -10 -10 -10 -10 -9 -9 -9 -9 -9 -9 -9 -9 -9 -9 -9 -10 -10 -10 -10 -10 -10 -10 -10 -11 -11 -10 -10 -10 -11 -14 -15 -15 -15 -17 -17 -18 -19 -19 -19 -19 -18 -17
-10 -11 -10 -10 -11 -10 -10 -9 -9 -9 -9 -9 -10 -9 -9 -9 -9 -10 -10 -11 -11 -11 -10 -10 -11 -11 -11 -11 -10 -10 -10 -13 -15 -15 -15 -16 -17 -17 -18 -18 -18 -18 -17 -17
-10 -10 -10 -11 -11 -11 -10 -10 -9 -9 -9 -9 -9 -9 -9 -9 -10 -10 -10 -11 -11 -11 -11 -11 -11 -11 -11 -11 -10 -10 -11 -13 -15 -15 -15 -16 -17 -17 -17 -18 -18 -18 -17 -17
-11 -11 -11 -11 -11 -11 -11 -10 -10 -10 -10 -9 -10 -9 -9 -9 -9 -10 -11 -11 -11 -10 -11 -11 -11 -11 -11 -11 -11 -11 -11 -12 -15 -15 -15 -15 -16 -17 -17 -17 -17 -18 -17 -17
-11 -11 -11 -11 -12 -11 -11 -11 -10 -10 -10 -10 -10 -10 -10 -9 -10 -10 -11 -11 -11 -11 -11 -11 -11 -11 -11 -11 -11 -11 -11 -12 -14 -15 -15 -15 -16 -16 -17 -17 -17 -18 -17 -17
-11 -11 -11 -12 -12 -12 -11 -11 -11 -11 -10 -10 -10 -10 -10 -10 -10 -10 -11 -11 -11 -11 -11 -11 -11 -11 -11 -11 -11 -11 -11 -12 -14 -15 -15 -15 -15 -16 -16 -17 -17 -17 -17 -17
-12 -12 -11 -12 -12 -12 -12 -11 -11 -11 -11 -10 -11 -11 -10 -10 -11 -11 -11 -11 -11 -11 -11 -11 -11 -11 -11 -11 -11 -11 -11 -11 -13 -14 -15 -15 -15 -15 -16 -16 -17 -17 -17 -16
-13 -12 -12 -12 -12 -12 -12 -12 -12 -12 -11 -11 -11 -11 -11 -11 -11 -12 -11 -11 -11 -11 -11 -11 -12 -12 -12 -11 -11 -11 -11 -11 -11 -13 -15 -15 -15 -15 -15 -15 -16 -16 -17 -17
-13 -13 -13 -12 -12 -12 -12 -12 -12 -11 -11 -11 -11 -10 -12 -11 -12 -12 -12 -11 -11 -11 -11 -12 -12 -12 -12 -12 -12 -11 -12 -11 -11 -11 -13 -14 -15 -15 -15 -15 -15 -16 -16 -17
-13 -12 -13 -13 -12 -12 -12 -13 -13 -12 -12 -11 -11 -10 -12 -12 -12 -12 -12 -11 -12 -12 -12 -12 -12 -12 -12 -12 -12 -12 -12 -12 -12 -12 -12 -14 -15 -15 -16 -15 -15 -16 -15 -16
-14 -13 -13 -13 -13 -12 -12 -13 -12 -12 -11 -11 -11 -12 -12 -12 -12 -12 -12 -11 -12 -12 -12 -12 -12 -12 -12 -12 -12 -12 -12 -12 -12 -12 -12 -12 -14 -15 -15 -15 -16 -16 -16 -16
-14 -13 -14 -13 -13 -13 -12 -12 -12 -11 -12 -11 -12 -12 -13 -12 -12 -12 -11 -12 -11 -12 -12 -12 -12 -12 -12 -12 -12 -12 -12 -12 -12 -12 -12 -12 -13 -15 -15 -15 -15 -16 -16 -16
-15 -14 -14 -14 -13 -13 -12 -12 -12 -12 -12 -11 -12 -12 -12 -11 -10 -10 -11 -11 -12 -12 -13 -12 -12 -12 -12 -12 -12 -12 -12 -12 -12 -12 -12 -12 -13 -14 -15 -15 -16 -16 -16 -17
-16 -15 -15 -14 -14 -14 -12 -12 -12 -12 -12 -12 -12 -13 -12 -12 -12 -12 -11 -12 -12 -12 -13 -13 -13 -13 -12 -12 -12 -12 -12 -12 -12 -12 -13 -13 -13 -13 -14 -15 -16 -16 -16 -17
-16 -15 -16 -15 -15 -14 -11 -12 -13 -13 -13 -13 -13 -13 -12 -13 -13 -12 -12 -12 -12 -12 -12 -13 -13 -12 -13 -13 -12 -12 -13 -13 -13 -12 -12 -13 -13 -13 -13 -13 -14 -15 -16 -16
-16 -16 -16 -16 -14 -13 -12 -12 -13 -13 -13 -13 -13 -14 -13 -13 -13 -12 -12 -12 -12 -12 -13 -13 -13 -13 -13 -13 -13 -13 -13 -13 -13 -13 -13 -13 -13 -14 -14 -13 -13 -14 -15 -15
-17 -17 -17 -16 -15 -13 -12 -12 -12 -13 -12 -14 -14 -14 -14 -13 -13 -13 -13 -12 -13 -12 -12 -12 -13 -13 -13 -13 -13 -13 -13 -13 -14 -14 -13 -13 -14 -14 -15 -15 -15 -14 -14 -15
-17 -17 -17 -17 -16 -14 -13 -12 -13 -14 -14 -15 -15 -14 -14 -13 -13 -13 -13 -13 -13 -12 -12 -13 -13 -13 -14 -14 -14 -13 -14 -14 -14 -14 -14 -14 -14 -14 -15 -15 -16 -16 -16 -16
-18 -17 -17 -17 -16 -15 -14 -14 -14 -15 -16 -15 -15 -15 -14 -14 -14 -14 -14 -13 -13 -13 -13 -13 -13 -13 -13 -15 -14 -14 -14 -14 -14 -14 -14 -14 -15 -15 -15 -15 -16 -16 -16 -17
-19 -18 -17 -17 -16 -16 -16 -16 -17 -16 -16 -16 -15 -14 -14 -14 -14 -14 -14 -14 -14 -13 -13 -13 -13 -14 -14 -15 -15 -15 -15 -15 -14 -14 -15 -15 -15 -15 -16 -16 -16 -16 -17 -17
-20 -19 -19 -18 -17 -17 -17 -17 -17 -18 -18 -17 -16 -15 -14 -14 -14 -14 -14 -15 -15 -14 -14 -14 -14 -14 -14 -14 -15 -16 -16 -16 -15 -15 -15 -15 -15 -15 -16 -16 -16 -17 -17 -17
-21 -20 -19 -19 -17 -17 -17 -17 -19 -18 -18 -17 -16 -16 -15 -15 -15 -15 -15 -15 -15 -15 -15 -14 -14 -14 -15 -14 -14 -15 -16 -16 -16 -15 -15 -16 -15 -15 -16 -16 -16 -17 -17 -17
-21 -20 -20 -19 -18 -18 -18 -19 -19 -19 -18 -18 -17 -17 -16 -16 -16 -16 -15 -16 -15 -15 -15 -15 -15 -15 -15 -15 -15 -15 -16 -16 -16 -16 -16 -16 -17 -16 -16 -17 -17 -16 -17 -17
Height
5780 5782 5781 5781 5781 5781 5780 5780 5779 5778 5778 5778 5776 5776 5774 5773 5771 5770 5769 5767 5764 5761 5757 5753 5748 5741 5732 5721 5705 5691 5675 5659 5648 5638 5628 5618 5608 5595 5582 5575 5578 5589 5597 5606
5774 5775 5775 5776 5775 5776 5776 5776 5775 5775 5774 5774 5773 5772 5771 5770 5768 5767 5765 5764 5761 5758 5754 5749 5744 5738 5729 5718 5703 5688 5671 5656 5645 5635 5623 5612 5599 5584 5565 5557 5563 5574 5587 5598
5765 5769 5769 5769 5770 5771 5771 5771 5771 5771 5769 5770 5769 5769 5768 5766 5764 5764 5762 5760 5757 5754 5750 5746 5741 5735 5726 5715 5701 5687 5671 5655 5643 5633 5619 5607 5595 5582 5567 5560 5564 5573 5583 5593
5757 5760 5762 5763 5764 5765 5765 5766 5766 5766 5766 5766 5765 5766 5762 5763 5762 5760 5758 5756 5753 5751 5747 5743 5738 5732 5723 5713 5700 5686 5670 5654 5643 5633 5619 5609 5601 5589 5577 5573 5575 5578 5585 5595
5749 5751 5753 5755 5757 5758 5760 5760 5761 5761 5762 5763 5761 5762 5761 5758 5757 5755 5754 5752 5749 5747 5745 5740 5735 5730 5722 5712 5700 5687 5671 5655 5645 5635 5622 5613 5606 5597 5588 5584 5583 5586 5591 5599
5740 5743 5745 5747 5748 5751 5754 5755 5755 5756 5757 5758 5757 5757 5757 5755 5753 5751 5749 5748 5745 5744 5741 5737 5733 5728 5721 5711 5700 5688 5673 5657 5647 5639 5628 5619 5613 5608 5600 5592 5591 5592 5598 5605
5733 5735 5737 5739 5741 5744 5747 5748 5749 5750 5751 5752 5752 5752 5751 5750 5749 5747 5745 5744 5742 5740 5738 5735 5731 5726 5719 5711 5700 5689 5676 5661 5650 5643 5633 5626 5620 5616 5611 5605 5601 5602 5607 5613
5724 5727 5729 5732 5734 5736 5738 5741 5743 5742 5745 5747 5747 5748 5747 5745 5744 5742 5740 5739 5738 5736 5734 5731 5728 5724 5718 5711 5701 5691 5679 5666 5654 5647 5640 5632 5627 5622 5619 5616 5614 5612 5614 5618
5715 5718 5721 5724 5726 5729 5732 5734 5736 5736 5737 5739 5742 5743 5742 5740 5739 5737 5736 5735 5734 5733 5730 5728 5726 5722 5716 5710 5702 5693 5682 5670 5659 5651 5645 5639 5633 5628 5627 5622 5620 5622 5623 5625
5706 5709 5712 5715 5718 5721 5724 5727 5728 5729 5729 5731 5735 5738 5737 5735 5733 5732 5731 5730 5729 5728 5726 5724 5723 5719 5715 5710 5703 5696 5686 5676 5665 5655 5648 5644 5639 5635 5631 5631 5629 5628 5629 5631
5698 5700 5705 5707 5710 5713 5715 5717 5720 5721 5722 5722 5725 5732 5732 5729 5727 5726 5726 5725 5725 5723 5722 5720 5719 5717 5713 5709 5704 5698 5689 5680 5671 5662 5652 5648 5645 5642 5638 5637 5636 5635 5634 5635
5691 5691 5694 5697 5700 5703 5705 5708 5711 5713 5715 5715 5716 5725 5726 5724 5721 5719 5719 5719 5718 5718 5717 5715 5714 5714 5710 5708 5704 5698 5692 5684 5676 5668 5659 5653 5650 5647 5645 5643 5641 5641 5641 5642
5681 5682 5687 5689 5692 5695 5698 5702 5703 5704 5704 5706 5711 5717 5718 5716 5714 5712 5711 5712 5712 5712 5711 5710 5709 5709 5707 5705 5702 5699 5694 5687 5681 5674 5666 5659 5653 5651 5650 5647 5646 5645 5644 5645
5668 5672 5677 5682 5684 5687 5689 5692 5694 5694 5695 5703 5703 5709 5710 5707 5705 5704 5703 5705 5706 5705 5705 5705 5704 5704 5703 5702 5700 5698 5694 5688 5683 5678 5672 5664 5659 5655 5654 5653 5651 5649 5648 5649
5655 5661 5667 5671 5674 5677 5680 5684 5685 5687 5693 5692 5700 5696 5702 5695 5694 5693 5694 5698 5699 5699 5700 5699 5699 5698 5698 5697 5697 5696 5693 5689 5685 5680 5676 5671 5665 5661 5658 5657 5656 5654 5652 5653
5643 5649 5654 5659 5663 5666 5670 5674 5676 5681 5685 5686 5687 5694 5687 5686 5685 5687 5689 5690 5693 5694 5694 5694 5693 5693 5693 5692 5692 5692 5691 5688 5685 5682 5677 5673 5669 5664 5662 5661 5659 5659 5657 5657
5631 5637 5642 5646 5651 5653 5657 5666 5669 5673 5676 5678 5680 5685 5679 5683 5682 5683 5681 5684 5687 5688 5686 5687 5688 5687 5687 5687 5687 5687 5687 5686 5683 5680 5677 5674 5671 5667 5664 5662 5662 5662 5662 5661
5617 5624 5628 5632 5636 5639 5649 5653 5661 5662 5667 5668 5671 5675 5674 5676 5677 5678 5675 5676 5678 5680 5679 5679 5680 5680 5680 5680 5681 5681 5681 5682 5681 5679 5676 5674 5671 5669 5666 5663 5662 5662 5662 5660
5603 5609 5612 5616 5621 5633 5638 5642 5647 5653 5657 5658 5660 5663 5665 5667 5669 5667 5670 5670 5671 5671 5671 5671 5672 5672 5674 5675 5674 5675 5675 5676 5676 5675 5674 5671 5669 5668 5666 5664 5661 5659 5659 5659
5588 5592 5598 5603 5608 5618 5629 5632 5633 5639 5646 5647 5649 5652 5653 5655 5658 5661 5661 5662 5662 5663 5663 5663 5663 5664 5666 5667 5667 5668 5668 5669 5669 5669 5668 5667 5666 5664 5663 5663 5662 5659 5657 5655
5573 5576 5582 5590 5595 5606 5617 5621 5625 5627 5638 5636 5638 5640 5642 5645 5648 5649 5651 5652 5653 5654 5654 5655 5654 5655 5656 5657 5658 5660 5661 5663 5660 5661 5662 5661 5661 5660 5659 5658 5658 5657 5656 5653
5557 5564 5570 5577 5584 5592 5606 5606 5612 5619 5617 5620 5624 5628 5631 5634 5636 5638 5641 5643 5643 5644 5644 5645 5646 5646 5645 5646 5647 5649 5653 5652 5652 5653 5654 5654 5653 5653 5652 5652 5652 5651 5651 5650
5536 5546 5556 5565 5577 5591 5593 5594 5597 5600 5602 5606 5610 5615 5619 5622 5624 5627 5629 5631 5633 5634 5635 5635 5635 5636 5637 5636 5638 5640 5641 5640 5641 5643 5646 5646 5645 5645 5645 5645 5644 5644 5643 5643
5519 5530 5537 5547 5568 5576 5579 5579 5582 5584 5586 5590 5595 5601 5606 5610 5613 5616 5618 5620 5621 5623 5623 5624 5624 5625 5626 5626 5625 5627 5626 5629 5630 5632 5634 5636 5637 5637 5636 5636 5636 5637 5636 5635
5505 5515 5525 5533 5551 5561 5566 5566 5568 5568 5570 5577 5581 5586 5592 5596 5600 5602 5605 5607 5609 5611 5613 5613 5614 5614 5614 5614 5614 5613 5614 5615 5617 5620 5622 5624 5625 5626 5626 5627 5627 5627 5627 5626
5490 5505 5511 5529 5544 5540 5547 5547 5549 5546 5558 5559 5565 5570 5575 5581 5584 5588 5591 5593 5595 5597 5599 5601 5601 5602 5601 5601 5602 5601 5601 5601 5603 5605 5608 5610 5611 5613 5614 5614 5616 5616 5616 5616
Wind_Speed
29 27 26 24 24 23 22 20 19 19 17 15 16 16 17 17 21 18 14 15 16 19 23 23 27 33 42 50 59 64 66 55 43 41 41 39 42 45 44 45 34 40 37 40
31 29 29 27 26 26 24 22 22 20 17 15 16 17 17 19 21 18 16 15 17 19 23 22 25 31 39 48 56 62 63 50 43 40 45 41 36 37 30 15 21 30 35 40
36 33 32 31 30 28 26 24 22 19 17 17 16 16 18 18 20 19 18 16 18 19 22 21 23 30 37 45 53 60 62 47 39 43 46 36 32 29 25 10 11 24 29 33
42 39 36 37 34 32 28 26 21 18 17 18 17 11 20 17 20 21 18 16 18 19 21 19 21 28 34 43 50 59 61 46 36 43 42 33 27 30 24 16 7 8 13 19
40 39 38 38 35 31 29 26 23 19 17 15 19 14 16 19 21 21 20 17 18 20 21 18 20 26 31 40 48 57 60 45 35 41 37 28 23 29 26 16 11 10 11 14
39 36 36 36 39 33 30 28 26 21 19 17 18 17 13 17 21 22 20 17 17 18 20 18 18 24 29 37 44 53 57 45 37 37 35 28 21 25 27 18 15 17 17 17
33 36 37 37 36 38 33 31 29 27 22 20 18 16 17 18 21 21 19 18 17 17 19 18 17 21 28 34 39 47 54 48 35 30 33 25 22 23 23 24 21 24 23 21
37 37 37 36 34 34 33 32 31 31 26 23 21 17 18 20 22 22 21 19 18 17 19 18 15 18 25 30 36 43 50 46 33 24 30 27 27 21 21 19 18 21 23 23
37 38 35 34 33 33 33 32 32 34 32 30 23 18 19 23 23 22 21 20 20 18 19 18 15 13 22 27 32 37 46 43 37 25 19 25 26 26 18 16 13 12 18 19
36 35 33 34 36 35 34 33 35 36 36 35 28 19 21 23 26 23 21 23 21 19 20 20 15 12 16 23 28 30 39 44 38 29 19 17 23 24 17 21 14 14 12 12
34 33 33 33 36 41 41 39 38 38 40 39 35 23 21 24 27 25 23 25 23 22 20 21 19 12 11 18 22 25 30 38 40 35 24 17 16 19 22 14 15 12 14 16
37 38 34 33 35 35 40 42 41 42 41 41 39 30 26 27 29 28 26 26 27 25 20 21 22 15 11 12 17 21 25 29 34 36 33 22 12 9 11 16 14 12 10 13
44 44 38 35 32 36 36 33 37 41 44 43 39 33 21 28 31 32 30 28 28 25 22 22 23 19 12 10 12 15 19 24 26 30 30 30 21 13 6 5 7 11 13 12
47 48 44 39 36 33 33 33 37 41 42 33 33 27 25 28 32 36 37 31 28 28 26 23 22 22 17 13 9 10 13 15 21 22 28 29 27 24 20 12 6 4 5 7
49 49 47 44 41 40 38 35 34 34 30 33 24 27 18 31 35 38 38 32 27 28 28 25 23 23 21 16 14 10 7 10 12 15 20 22 23 22 19 16 16 18 19 16
50 51 49 49 47 46 45 42 40 36 33 32 28 15 27 33 33 33 32 31 26 25 25 27 25 24 24 21 17 14 9 4 7 8 12 16 17 18 17 15 15 16 15 13
52 50 49 49 48 50 51 46 44 39 36 31 30 16 26 25 27 23 27 26 22 23 24 25 28 26 25 25 21 19 15 10 5 3 4 7 10 13 14 13 12 11 10 11
53 52 51 51 51 53 51 50 46 45 37 32 31 22 27 24 24 25 29 30 28 25 28 25 29 30 27 27 25 24 22 16 13 9 6 2 1 4 7 8 7 7 6 6
55 57 59 61 60 54 51 54 54 49 43 40 38 33 31 31 24 29 28 25 24 23 24 29 29 33 29 28 28 28 26 24 19 16 15 11 8 6 4 2 2 2 0 1
59 63 61 63 64 60 53 54 56 53 49 40 40 38 38 37 34 32 32 31 29 27 26 25 27 31 31 31 31 30 31 29 28 24 21 20 16 14 12 10 9 7 7 7
63 67 68 66 65 63 57 56 55 54 47 40 42 42 42 42 39 36 34 33 32 32 32 31 28 29 33 34 35 32 33 31 34 32 26 26 24 22 18 17 16 16 15 13
69 67 67 72 70 63 57 60 56 48 47 46 46 42 41 40 39 34 31 32 32 31 32 32 31 31 35 37 37 34 30 35 38 36 33 31 30 26 25 24 23 21 21 20
71 69 74 75 65 59 58 54 50 52 51 49 50 49 46 44 40 36 33 32 33 32 32 34 35 34 34 39 39 37 33 38 40 41 36 34 36 34 30 29 27 27 26 25
73 70 69 71 72 64 61 58 54 52 51 55 56 55 53 48 45 41 39 36 35 33 33 34 37 36 38 43 44 40 41 41 42 41 40 38 40 38 37 35 32 32 31 31
60 62 64 69 67 72 68 63 56 58 56 55 56 58 54 53 47 46 43 41 41 38 34 36 37 39 38 44 46 46 46 46 45 44 43 42 42 42 40 41 39 36 35 36
63 60 61 59 54 58 58 58 58 60 60 63 62 57 54 52 49 48 46 44 43 42 39 37 36 38 42 44 43 48 50 50 50 48 46 45 45 46 45 42 44 42 41 41
Wind_Direction
256 258 260 266 276 285 288 287 282 273 274 273 273 272 282 291 291 294 293 297 307 319 325 331 335 343 342 349 354 349 347 343 339 330 328 325 330 318 299 282 261 233 227 222
256 257 261 266 271 281 284 280 282 279 276 267 265 269 282 292 289 292 291 297 303 314 322 331 338 344 346 351 355 351 350 345 340 338 337 333 337 332 329 291 225 203 209 218
258 260 263 265 268 273 279 275 278 277 273 265 261 267 281 291 292 293 286 291 300 309 320 331 338 347 351 353 358 353 354 348 345 347 344 346 349 357 15 21 177 193 202 212
257 258 263 263 263 265 271 269 271 270 268 265 266 252 282 290 296 295 290 288 297 304 315 327 339 349 356 356 0 356 357 354 352 354 351 1 19 29 37 54 105 163 183 199
257 257 257 262 257 259 265 264 262 264 263 264 266 270 267 291 296 294 289 286 292 301 311 323 340 351 357 358 2 358 360 1 356 359 1 6 26 36 40 63 99 121 137 153
254 254 258 261 250 255 260 258 256 257 264 266 263 275 277 286 292 293 288 287 289 297 308 319 337 349 360 1 4 1 3 6 3 2 9 12 24 32 37 55 93 117 135 150
253 254 256 255 252 250 255 252 253 253 261 270 269 274 277 288 293 293 285 286 287 297 305 316 330 346 358 3 10 6 5 10 4 9 21 29 29 13 31 50 91 108 121 134
251 256 259 254 249 246 248 247 249 254 258 263 275 279 273 286 292 292 287 285 286 294 297 310 323 342 349 2 10 9 9 13 10 12 26 25 32 23 19 41 78 117 126 138
248 253 255 248 243 243 245 247 248 253 259 264 267 274 279 286 287 287 288 285 284 290 293 301 314 339 342 2 10 13 11 17 16 10 23 25 16 24 38 34 78 99 133 134
246 247 247 245 242 243 245 245 247 252 259 263 267 268 281 284 283 286 287 285 282 284 292 293 304 325 342 357 11 17 17 17 23 19 10 25 32 35 53 46 72 107 137 154
246 245 243 245 246 245 244 245 246 251 255 262 268 268 277 282 282 285 282 281 281 280 284 289 293 310 333 349 10 14 25 23 23 32 33 23 46 50 50 66 72 87 117 137
244 245 243 243 242 247 247 244 244 249 254 259 265 271 273 272 277 278 275 276 276 274 277 282 285 297 312 344 1 16 19 31 31 33 37 42 43 58 65 66 82 81 108 122
242 244 246 243 245 248 248 248 248 250 254 258 266 279 276 270 270 271 269 270 270 267 271 274 278 285 293 309 347 12 14 28 41 44 43 49 53 50 65 76 98 114 113 133
241 244 244 245 242 241 247 245 249 251 255 265 264 269 272 265 263 266 268 267 270 264 267 267 274 280 285 288 307 346 15 20 37 40 49 52 52 54 59 66 77 123 129 139
240 243 242 242 243 242 241 241 247 254 261 262 271 265 234 253 253 257 263 264 263 266 264 261 267 274 277 280 283 297 346 19 22 45 49 55 63 61 60 62 63 73 82 95
240 241 243 244 243 244 245 244 244 250 258 265 261 256 236 247 260 265 271 274 276 281 268 262 265 266 273 274 272 277 285 316 14 21 55 53 52 60 63 69 78 78 85 93
241 241 242 243 245 247 247 247 248 248 251 262 253 243 255 247 257 271 279 283 278 274 269 258 260 262 267 268 270 266 267 274 283 316 12 68 64 58 66 59 58 75 91 97
239 240 241 243 243 245 250 249 246 249 250 253 246 240 246 251 263 270 268 273 275 268 269 263 250 255 258 263 265 267 264 262 266 266 256 267 104 86 73 80 76 59 53 67
235 237 239 242 245 244 248 252 251 247 249 250 250 254 259 258 257 260 264 272 273 272 273 275 264 257 258 265 265 265 266 263 261 261 261 248 237 239 216 203 140 142 115 340
231 236 240 243 243 243 246 249 254 254 248 254 254 252 253 256 258 259 266 267 270 271 270 271 271 263 250 259 264 264 264 264 264 261 261 261 254 244 246 245 243 233 224 232
236 234 238 243 243 242 243 246 249 254 259 254 250 253 254 255 258 264 266 268 268 272 272 266 265 261 252 251 260 264 262 263 260 260 264 261 258 257 253 247 250 254 249 243
233 234 234 237 241 242 242 245 247 253 256 252 251 252 254 256 257 258 261 264 267 267 271 274 267 263 258 248 250 256 260 254 259 261 260 263 260 259 255 256 259 255 256 260
231 234 239 239 239 240 241 246 253 252 251 253 251 251 252 253 254 258 264 261 264 267 268 268 271 269 260 253 251 257 252 253 253 257 257 258 262 261 261 259 255 255 256 258
238 237 240 243 242 237 239 246 250 251 250 249 251 253 255 257 256 260 263 265 265 269 272 267 265 268 267 262 254 246 249 254 252 255 254 253 256 260 263 263 264 260 257 257
238 235 239 242 241 242 244 247 248 249 253 253 251 250 251 253 258 260 262 262 262 265 269 270 267 265 265 267 261 251 245 248 251 252 253 250 253 252 258 261 259 260 260 260
234 236 237 243 242 242 241 242 243 242 242 246 249 252 253 254 256 258 258 259 260 260 263 262 265 265 264 263 270 263 249 249 249 250 253 249 249 251 248 255 256 255 257 260